Starlink 2338

operational
NORAD ID: 47793 Int'l Des: 2021-018 Owner: SPXS Country: US Constellation: starlink
LEOCIRCULARSTARLINK_TYPE

Starlink 2338について

説明を読み込み中...

リアルタイム位置

3D地球を読み込み中...

次回通過

高度履歴

Altitude vs Time

uPlot chart will show altitude changes over time

軌道要素

1 47793U 21018G 25303.14666976 .00000688 00000-0 65104-4 0 9992
2 47793 53.0548 97.6475 0001384 95.2316 264.8831 15.06403724257195
Epoch: Oct 30, 2025 • Age: 17 hours

現在のステータス

高度 551.8 km
速度 7.59 km/s
衛星直下点 -16.14°S, 57.32°W
打ち上げ日 Mar 11, 2021
運用期間 4.6 years
タイプ internet

技術仕様

分類 Payload
質量 260.00 kg
乾燥質量 248.00 kg
総質量 260.00 kg
長さ 0.20 m
直径 2.80 m
スパン 9.00 m
形状 Box + pan
製造者 SPXS
バスタイプ Starlink
フェーズステータス In Orbit
所有者/国 SPXS/US

大規模コンステレーション

Loading constellations...